TimeMST,TemperatureF,Dew PointF,Humidity,Sea Level PressureIn,VisibilityMPH,Wind Direction,Wind SpeedMPH,Gust SpeedMPH,PrecipitationIn,Events,Conditions,WindDirDegrees,DateUTC
12:55 AM,53.6,17.6,24,29.96,10.0,SSW,5.8,-,N/A,,Clear,210,2012-10-26 07:55:00
1:56 AM,53.1,16.0,23,29.96,10.0,Calm,Calm,-,N/A,,Clear,0,2012-10-26 08:56:00
2:56 AM,53.1,15.1,22,29.94,10.0,SE,3.5,-,N/A,,Clear,130,2012-10-26 09:56:00
3:56 AM,54.0,14.0,21,29.95,10.0,Calm,Calm,-,N/A,,Clear,0,2012-10-26 10:56:00
4:56 AM,52.0,14.0,22,29.98,10.0,SE,6.9,-,N/A,,Clear,130,2012-10-26 11:56:00
5:55 AM,55.4,14.0,20,30.00,10.0,Calm,Calm,-,N/A,,Clear,0,2012-10-26 12:55:00
6:55 AM,55.4,12.2,18,30.02,10.0,Calm,Calm,-,N/A,,Clear,0,2012-10-26 13:55:00
7:55 AM,55.4,14.0,20,30.04,10.0,NNW,4.6,-,N/A,,Clear,330,2012-10-26 14:55:00
8:55 AM,60.8,15.8,17,30.04,10.0,North,4.6,-,N/A,,Clear,360,2012-10-26 15:55:00
9:55 AM,64.4,15.8,15,30.03,10.0,Calm,Calm,-,N/A,,Clear,0,2012-10-26 16:55:00
10:55 AM,69.8,14.0,12,30.00,10.0,NE,8.1,-,N/A,,Clear,50,2012-10-26 17:55:00
11:55 AM,73.4,14.0,10,29.99,10.0,ESE,4.6,-,N/A,,Clear,120,2012-10-26 18:55:00
12:55 PM,73.4,14.0,10,29.95,10.0,ESE,6.9,-,N/A,,Clear,120,2012-10-26 19:55:00
1:55 PM,75.2,15.8,11,29.92,10.0,NE,5.8,-,N/A,,Clear,50,2012-10-26 20:55:00
2:55 PM,77.0,15.8,10,29.90,10.0,Variable,4.6,-,N/A,,Clear,0,2012-10-26 21:55:00
3:55 PM,75.2,15.8,11,29.89,10.0,ESE,3.5,-,N/A,,Clear,110,2012-10-26 22:55:00
4:55 PM,75.2,17.6,11,29.90,10.0,SE,4.6,-,N/A,,Clear,140,2012-10-26 23:55:00
5:55 PM,71.6,17.6,13,29.91,10.0,Variable,3.5,-,N/A,,Clear,0,2012-10-27 00:55:00
6:55 PM,66.2,19.4,17,29.95,10.0,Variable,3.5,-,N/A,,Clear,0,2012-10-27 01:55:00
7:55 PM,64.4,23.0,21,29.96,10.0,Calm,Calm,-,N/A,,Clear,0,2012-10-27 02:55:00
8:55 PM,62.6,26.6,26,29.96,10.0,West,8.1,-,N/A,,Clear,270,2012-10-27 03:55:00
9:55 PM,62.6,26.6,26,29.96,10.0,Variable,5.8,-,N/A,,Clear,0,2012-10-27 04:55:00
10:55 PM,60.8,26.6,27,29.95,10.0,SE,8.1,-,N/A,,Clear,130,2012-10-27 05:55:00
11:55 PM,57.2,26.6,31,29.94,10.0,Variable,4.6,-,N/A,,Clear,0,2012-10-27 06:55:00